This demonstration page uses our WeatherBlox Daily Observations layout. Learn more.

36.17497, -115.13722

Hourly Observations for November 6, 2019

Temp ( °F °C ) Dew Point ( °F °C ) Humidity (%) Winds ( mph kmh ) Pressure ( in mb ) Visibility ( mi km ) Precip ( " mm )
12:53 am 00:53 Clear 54 12.2 22 -5.6 29 29 WNW 6 9 30.06 1018 10 16.0934 0 0
1:53 am 01:53 Clear 55 12.8 22 -5.6 28 28 WNW 7 11 30.05 1018 10 16.0934 0 0
2:53 am 02:53 Clear 54 12.2 24 -4.4 31 31 W 6 9 30.05 1018 10 16.0934 0 0
3:53 am 03:53 Clear 54 12.2 23 -5 30 30 Calm 30.05 1018 10 16.0934 0 0
4:53 am 04:53 Clear 50 10 25 -3.9 38 38 WNW 8 13 30.06 1018 10 16.0934 0 0
5:53 am 05:53 Clear 50 10 25 -3.9 38 38 WNW 5 7 30.07 1018 10 16.0934 0 0
6:53 am 06:53 Sunny 53 11.7 22 -5.6 30 30 NNW 3 6 30.08 1019 10 16.0934 0 0
7:53 am 07:53 Sunny 59 15 25 -3.9 27 27 Calm 30.09 1019 10 16.0934 0 0
8:53 am 08:53 Sunny 64 17.8 23 -5 21 21 Calm 30.08 1019 10 16.0934 0 0
9:53 am 09:53 Sunny 68 20 21 -6.1 17 17 Calm 30.07 1018 10 16.0934 0 0
10:53 am 10:53 Sunny 71 21.7 22 -5.6 16 16 VRB 5 7 30.05 1018 10 16.0934 0 0
11:53 am 11:53 Sunny 74 23.3 22 -5.6 14 14 Calm 30.01 1016 10 16.0934 0 0
12:53 pm 12:53 Sunny 75 23.9 22 -5.6 14 14 SE 3 6 29.99 1016 10 16.0934 0 0
1:53 pm 13:53 Sunny 76 24.4 21 -6.1 13 13 E 3 6 29.98 1015 10 16.0934 0 0
2:53 pm 14:53 Sunny 77 25 21 -6.1 12 12 Calm 29.97 1015 10 16.0934 0 0
3:53 pm 15:53 Sunny 75 23.9 21 -6.1 13 13 Calm 29.97 1015 10 16.0934 0 0
4:53 pm 16:53 Clear 73 22.8 25 -3.9 17 17 Calm 29.98 1015 10 16.0934 0 0
5:53 pm 17:53 Clear 67 19.4 27 -2.8 22 22 NW 5 7 30 1016 10 16.0934 0 0
6:53 pm 18:53 Clear 65 18.3 26 -3.3 23 23 WNW 7 11 30.02 1017 10 16.0934 0 0
7:53 pm 19:53 Clear 62 16.7 26 -3.3 25 25 WNW 9 15 30.02 1017 10 16.0934 0 0
8:53 pm 20:53 Clear 61 16.1 25 -3.9 25 25 W 8 13 30.04 1017 10 16.0934 0 0
9:53 pm 21:53 Clear 65 18.3 20 -6.7 18 18 NNW 9 15 30.04 1017 10 16.0934 0 0
10:53 pm 22:53 Clear 57 13.9 24 -4.4 28 28 E 5 7 30.07 1018 10 16.0934 0 0
11:53 pm 23:53 Clear 59 15 21 -6.1 23 23 N 3 6 30.08 1019 10 16.0934 0 0

Powered by AerisWeather